STARLINK-4129 (53251 NORAD) Tracking and Keplerian Element Data

This shows tracking and keplerian element data for the satellite.

Feedback or suggestion? Click here.




ElementValue
Catalog53251
NameSTARLINK-4129
Epoch Orbit130
Epoch Day269.91667824
Epoch Year2022
RAAN89.6414
Inclination53.2172
Eccentricity0.0001511
Argument of Perigee60.4175
Mean Anonmoly46.7441
Mean Motion15.18909958
Decay Rate-0.01132962
L11 53251U 22086K 22269.91667824 -.01132962 00000+0 -58094-1 0 9990
L22 53251 53.2172 89.6414 0001511 60.4175 46.7441 15.18909958 1306

Live tracking and technical data element details for STARLINK-4129 (NORAD 53251). STARLINK-4129 can be tracked NOW for your location showing map with azimuth and elevation plus other details from your city location.

Track the satellite on the map from your city or location and see movement details for azimuth, elevation, latitude, longitude, range, height, and movement on the map or in text.







IsCatalogInMostPopularTable: catalog: 53251, numindb: 3
Update: records affected: 1



GetName: 53251 STARLINK-4129

Hit Count: updated at: Fri, 30 Sep 2022 02:52:57 GMT